Theta_e
312 312 311 311 311 310 310 310 310 310 309 309 308 309 310 310 310 309 309 309 309 309 309 309 309 308 308 307 306 305 305 305 304 303 302 301 299 298 298 297 297 296 295 295 294 294 293 293 294 294 294 294 293 293 293 294 294 294 294 292 290 289
312 312 311 311 310 310 310 310 310 310 310 310 309 309 310 310 310 310 310 310 310 310 309 309 309 308 308 307 306 305 305 304 303 303 302 300 299 299 298 297 296 296 295 294 294 293 293 293 293 293 293 293 293 293 293 293 293 293 293 291 289 289
312 312 312 312 311 311 311 311 311 311 311 311 311 311 311 311 312 312 311 311 310 310 309 309 309 308 308 307 306 306 305 304 303 302 301 300 299 299 298 297 296 295 295 294 294 293 293 293 293 293 293 293 293 293 293 293 293 293 293 290 289 289
313 313 312 312 312 311 311 311 311 311 311 311 311 311 311 311 312 312 312 312 311 311 310 309 309 308 307 307 306 306 305 304 303 302 300 300 299 299 297 296 296 295 295 294 294 293 293 292 293 293 293 293 293 293 293 293 293 293 292 290 289 288
313 313 313 313 313 312 311 311 311 311 312 312 311 311 311 311 312 312 312 312 311 311 310 310 309 309 308 307 306 306 305 304 303 302 300 300 299 298 297 296 295 295 294 294 294 293 292 292 292 292 293 293 293 293 293 293 293 292 291 290 289 288
313 313 313 313 313 313 312 311 312 312 312 312 312 311 311 311 311 312 311 312 311 311 311 310 309 309 308 308 307 307 306 304 303 302 301 300 298 297 296 295 294 294 294 294 293 293 292 292 292 292 292 292 292 292 292 292 292 292 291 289 288 288
312 313 313 313 313 313 313 312 312 312 313 313 313 313 312 311 311 311 311 311 311 311 311 310 310 309 309 309 308 307 306 305 304 302 301 300 298 297 295 294 294 294 294 294 293 293 292 292 292 292 292 292 292 292 292 292 291 291 290 289 288 288
312 313 313 313 313 313 313 313 313 313 313 313 313 313 313 311 311 310 310 310 310 310 310 310 310 310 310 309 309 308 307 306 304 303 301 300 298 297 295 294 294 293 293 293 293 292 292 291 291 292 292 292 292 292 292 291 291 290 289 288 288 288
312 312 313 313 312 312 313 313 313 313 312 312 313 313 313 312 311 310 310 310 309 310 310 310 310 310 310 309 309 308 307 306 304 303 301 299 298 297 295 294 294 293 293 293 292 292 291 291 291 291 291 291 291 291 291 291 290 289 289 288 288 287
312 312 313 312 312 312 312 313 313 312 312 312 313 313 313 313 312 311 310 310 310 310 310 310 310 310 309 308 307 306 306 305 304 302 300 299 298 296 295 294 294 293 292 292 292 291 291 291 291 291 291 291 291 291 291 290 290 289 288 288 287 287
311 311 312 312 312 312 312 313 313 313 313 313 313 313 312 312 312 312 311 310 310 310 310 310 309 309 308 307 306 305 305 305 304 302 300 298 297 296 295 294 293 293 292 291 291 291 291 290 290 290 291 291 291 291 290 290 289 288 288 287 287 286
310 310 311 311 312 312 313 313 313 313 313 313 313 313 313 313 312 312 311 310 310 311 310 310 309 308 308 306 306 305 304 304 303 301 300 298 297 295 294 294 293 292 292 291 291 290 290 290 290 290 290 290 290 290 290 289 288 288 287 287 286 286
308 309 310 311 311 312 313 313 313 313 313 313 313 313 313 312 312 312 311 311 311 311 310 310 309 309 308 307 306 304 303 302 301 300 299 298 296 295 294 293 293 292 291 291 290 290 290 289 289 289 289 290 290 289 289 289 288 287 287 287 286 286
305 306 307 308 309 310 311 312 312 312 313 313 313 313 313 312 312 312 311 311 311 310 310 309 309 308 308 307 305 304 302 301 300 299 299 297 296 295 294 293 292 291 291 290 290 289 289 289 289 289 289 289 289 289 288 288 287 287 287 287 286 286
302 303 304 305 307 308 310 311 311 311 312 312 313 313 313 312 312 311 311 311 311 310 310 309 308 308 307 307 305 303 301 300 300 299 298 297 296 294 293 293 292 291 290 290 289 289 289 289 289 289 289 289 289 288 287 287 287 287 286 286 287 286
300 301 302 303 305 307 309 310 310 310 311 312 312 313 312 312 312 311 311 310 310 309 308 308 307 307 306 306 304 302 301 300 300 299 298 296 295 294 293 292 292 291 290 290 289 289 288 288 288 288 288 288 288 287 286 286 286 286 286 286 286 286
299 299 300 300 302 304 307 309 310 309 310 311 311 312 312 312 311 310 310 309 309 308 307 307 307 306 305 304 303 302 301 300 299 298 297 296 295 294 293 292 292 291 290 290 289 288 288 287 287 287 287 287 287 286 286 286 286 286 286 286 286 286
299 299 299 299 299 301 304 307 309 309 310 310 310 311 312 312 311 310 310 309 309 308 307 306 305 305 304 304 302 301 300 299 299 298 296 295 294 293 292 292 291 291 290 289 289 288 287 287 287 287 287 287 286 286 286 286 286 286 287 287 287 287
298 298 298 298 299 299 301 303 306 308 309 310 309 309 310 310 310 310 309 309 308 307 305 305 304 304 304 303 302 301 300 300 298 297 296 295 293 292 292 291 291 290 290 289 288 287 286 286 287 287 286 286 285 285 286 287 287 287 287 288 288 287
296 296 297 298 298 299 299 301 303 305 306 307 307 306 307 308 308 308 307 307 306 304 303 303 303 303 303 303 302 301 300 299 298 297 295 294 293 292 292 291 290 290 289 289 288 287 286 286 286 286 286 286 285 286 286 287 288 288 287 288 288 286
294 295 295 296 298 299 299 300 301 302 303 304 304 305 305 306 306 305 305 304 303 302 302 301 301 301 301 301 300 300 299 298 297 296 294 293 292 292 291 291 290 289 289 288 287 286 286 286 286 286 286 285 285 286 287 287 287 287 287 287 287 285
293 294 294 295 296 298 299 300 300 300 301 301 302 303 303 304 304 303 303 302 302 301 301 300 300 299 299 299 298 298 297 296 295 295 293 292 292 291 291 290 289 289 288 288 286 286 285 286 286 286 286 285 285 286 287 287 287 287 287 287 285 284
293 293 293 294 294 295 298 299 300 300 300 300 301 301 302 302 302 302 302 301 301 300 300 299 299 298 298 298 297 296 296 295 294 294 293 292 291 291 290 290 289 288 288 287 286 285 285 285 285 285 286 285 286 286 287 286 286 287 287 285 284 283
292 293 293 293 293 294 295 298 299 299 299 300 300 300 301 301 301 301 301 301 300 299 298 298 297 297 297 296 296 295 294 294 293 292 292 291 291 290 289 289 288 287 287 286 285 285 285 285 285 285 285 286 285 286 286 286 286 286 285 284 283 283
291 292 293 293 293 293 294 296 298 299 299 299 299 300 300 300 300 300 300 300 300 299 298 297 296 296 295 295 294 294 293 293 292 291 291 290 290 289 288 288 287 287 286 285 285 284 284 284 285 285 285 285 285 284 285 286 285 284 283 283 283 283
289 290 291 292 293 293 293 295 297 298 298 298 298 299 299 299 299 299 299 299 299 299 299 298 297 296 295 294 293 292 292 291 291 290 290 289 289 288 287 287 286 286 285 285 285 284 284 284 284 285 285 285 284 284 284 285 284 283 283 283 282 282
288 289 290 291 291 292 292 294 295 296 297 297 297 298 298 298 298 298 298 298 298 298 298 298 298 297 296 295 294 293 292 291 290 290 289 288 288 287 287 286 286 285 285 284 284 284 284 284 284 284 285 284 284 283 282 282 282 282 282 282 282 281
288 288 289 289 290 290 291 292 293 294 295 295 296 296 297 297 297 297 297 297 297 297 297 297 296 296 296 295 294 293 292 291 290 289 289 288 287 287 286 286 286 285 284 284 283 283 283 283 284 284 284 284 283 282 280 280 280 280 281 282 281 280
286 287 288 289 289 289 289 290 291 292 292 293 293 294 296 296 296 296 296 296 296 296 296 296 295 295 294 294 294 294 293 291 289 288 288 288 287 286 286 285 285 285 284 283 283 283 283 283 284 284 284 284 283 281 279 279 279 280 280 281 281 280
285 286 287 288 288 288 289 290 291 291 291 291 291 293 294 295 295 295 296 296 296 296 295 295 295 295 294 293 293 294 294 293 291 290 290 290 290 289 288 287 286 285 285 284 283 282 282 283 284 284 285 285 283 281 280 280 280 280 281 280 280 279
284 285 286 287 288 287 287 289 290 290 290 290 290 292 293 294 295 295 295 295 295 295 295 294 294 294 293 293 292 292 292 292 291 291 290 290 290 289 289 289 289 288 286 284 284 283 283 283 284 285 286 285 283 281 281 281 281 281 280 280 279 279
283 283 285 286 287 286 286 288 289 290 290 289 289 290 292 293 294 294 294 295 295 295 295 294 293 293 292 292 291 290 289 288 288 287 287 287 287 287 287 287 288 288 286 284 284 283 284 284 285 286 285 282 280 279 280 280 280 280 279 279 279 278
282 283 285 286 286 285 285 287 288 289 289 288 287 287 289 290 292 293 294 294 294 295 294 294 293 292 292 291 291 290 288 287 286 285 284 284 284 284 284 283 284 285 285 284 283 283 283 284 286 285 283 280 278 278 278 279 279 279 279 279 279 278
279 280 282 284 284 284 285 287 288 289 288 286 285 285 286 287 289 290 292 293 293 293 293 293 293 292 291 290 289 289 288 287 285 284 283 282 282 282 281 281 281 282 282 282 282 282 283 284 284 283 281 279 278 278 278 278 278 279 279 279 278 277
277 278 280 281 282 283 285 286 288 289 287 285 285 285 285 285 286 287 289 290 291 292 293 293 292 292 291 290 289 288 287 286 285 284 282 281 279 279 279 279 279 279 280 280 281 282 283 284 282 280 279 278 278 278 279 278 278 279 279 278 277 277
276 278 279 278 279 281 283 286 288 288 284 283 284 284 284 284 284 284 286 288 289 290 291 291 292 291 290 289 288 288 287 286 284 283 281 280 278 277 277 277 278 278 278 279 280 280 281 281 280 278 278 277 278 278 278 278 278 278 277 276 276 276
276 279 279 277 277 279 281 284 287 285 281 281 282 282 282 283 282 283 284 286 287 288 289 290 290 290 289 288 287 286 285 284 282 281 280 279 278 277 277 277 277 277 278 278 279 279 278 278 278 277 277 277 278 278 278 278 278 278 276 276 275 275
273 277 277 276 277 278 280 284 286 282 278 279 280 279 280 281 281 282 283 284 285 287 287 288 288 288 288 287 285 284 283 281 280 279 278 278 278 277 277 277 276 276 277 277 277 277 277 277 277 277 277 277 277 278 279 279 278 277 276 275 275 274
Wind_Speed
8 8 9 12 13 15 17 18 20 23 26 31 33 34 35 37 40 42 43 45 45 44 43 43 43 43 43 43 44 44 44 43 43 43 43 43 44 44 43 43 44 45 46 47 46 44 41 39 36 32 29 26 23 21 19 18 18 20 23 24 23 22
7 8 8 10 11 14 15 17 18 19 22 27 31 33 35 38 40 42 44 46 46 46 46 45 45 45 45 45 46 46 46 45 45 45 44 44 44 44 43 43 43 44 46 47 47 45 42 40 37 34 31 28 25 22 20 19 20 21 23 24 23 22
7 7 8 10 13 15 16 17 17 18 22 25 28 32 36 39 41 44 45 46 47 48 48 48 47 48 48 48 48 48 48 47 47 47 46 46 45 45 45 44 43 43 44 45 46 45 43 42 39 36 33 30 27 24 22 21 21 22 23 23 23 21
12 11 11 13 16 17 18 18 19 20 22 25 28 32 35 38 42 45 47 48 49 50 50 50 50 51 51 51 51 51 50 49 49 49 49 48 47 46 46 45 43 43 43 45 46 46 45 43 40 37 34 31 28 25 23 22 22 23 24 23 22 21
15 15 16 17 19 21 21 21 21 21 23 26 30 34 36 38 40 44 48 50 51 52 52 52 53 53 53 53 53 53 52 51 51 52 51 50 49 48 48 46 45 44 44 44 46 46 46 44 41 38 35 32 29 26 24 23 23 23 24 23 21 21
23 22 22 20 20 21 24 23 23 24 26 28 32 36 39 40 41 44 48 51 52 53 54 55 55 56 56 56 55 54 54 53 53 53 52 51 51 50 49 48 46 45 44 45 46 47 47 45 42 39 36 32 29 27 25 24 24 24 24 22 21 20
30 28 24 20 17 19 22 25 28 30 30 31 34 37 40 42 44 47 49 50 52 54 55 56 57 57 57 56 56 56 55 54 54 54 53 52 52 51 50 49 47 46 45 45 47 48 48 46 44 40 37 34 30 28 27 26 25 25 23 22 21 20
36 32 24 20 20 22 26 32 37 38 37 37 38 39 40 42 45 48 50 52 52 53 55 57 58 59 59 59 58 57 56 56 55 55 55 54 53 52 51 49 48 47 46 45 47 48 48 47 45 42 38 35 32 30 28 27 26 25 23 22 21 20
41 37 30 28 29 32 34 37 41 42 41 42 43 42 42 43 45 47 50 52 52 52 53 55 56 56 59 61 60 58 57 57 56 56 56 54 53 52 51 50 49 47 45 45 46 47 48 48 46 43 39 36 33 31 29 28 27 25 23 21 20 19
40 38 37 38 39 40 41 44 46 45 44 46 49 47 45 44 46 49 51 50 50 50 50 50 50 51 54 58 59 59 58 57 57 56 55 54 53 52 51 50 48 46 45 45 45 47 48 48 47 43 40 38 35 32 31 29 27 25 23 21 20 19
40 39 41 43 44 44 46 48 48 46 46 48 50 49 47 45 46 49 50 49 48 48 47 47 48 49 51 54 56 58 58 57 57 55 54 53 52 51 51 49 47 46 45 45 46 48 49 49 46 43 41 39 36 34 31 29 27 24 22 21 20 18
39 40 42 43 43 44 44 44 44 46 47 47 48 50 49 46 46 46 46 46 46 46 46 48 49 50 50 52 53 55 57 57 56 54 52 51 50 50 49 48 47 46 45 45 47 49 50 49 46 44 42 40 36 34 31 29 27 24 23 21 19 18
35 39 41 42 42 43 44 44 44 45 47 47 48 49 46 45 46 45 45 46 46 47 49 51 51 50 50 50 52 54 56 56 54 52 50 49 49 49 49 48 47 46 46 47 48 49 50 49 47 45 42 40 37 35 32 29 27 25 23 21 19 17
35 34 37 39 40 41 44 47 48 48 50 50 46 43 42 45 48 47 47 48 49 51 53 53 53 52 51 50 51 53 53 53 52 50 49 48 48 48 48 48 48 47 47 47 48 49 50 49 47 45 43 41 38 35 32 29 27 24 22 21 19 17
42 39 35 34 35 37 39 44 51 53 49 44 41 41 43 46 47 48 49 49 51 54 54 54 53 53 52 50 50 50 50 50 49 48 47 47 47 47 48 48 47 47 47 47 47 49 50 49 47 45 43 40 37 34 31 28 26 24 22 21 19 17
45 45 42 37 32 32 33 37 45 48 43 39 42 46 47 44 43 45 48 49 51 53 52 52 53 53 51 50 48 48 48 47 47 46 46 46 46 47 47 47 47 46 46 47 47 48 49 48 46 43 41 38 35 32 30 27 25 23 22 20 19 18
46 47 46 44 41 34 30 33 37 39 40 42 46 48 44 40 39 40 42 44 47 48 49 50 51 51 50 48 47 46 45 45 45 45 45 45 45 46 46 46 46 45 45 46 46 47 48 46 44 42 40 37 34 32 30 27 25 23 21 20 19 18
45 47 47 46 45 43 37 31 31 34 38 40 43 42 37 33 33 34 36 38 41 43 45 47 47 48 47 46 45 45 44 44 44 44 44 44 44 44 44 44 44 44 44 45 46 47 47 45 43 41 39 36 34 33 31 28 25 22 21 21 20 18
45 46 46 46 44 44 44 38 28 25 27 31 34 33 29 25 25 27 30 34 36 39 41 43 44 44 44 44 44 43 43 42 42 43 43 43 43 44 44 44 44 43 43 44 45 47 47 45 43 41 38 35 34 34 32 27 24 23 21 21 20 19
47 47 46 45 43 42 43 41 34 26 20 21 22 22 20 18 19 22 26 29 32 35 37 39 41 41 42 43 42 41 41 41 41 42 41 41 42 42 42 42 42 42 42 43 44 46 46 44 43 40 37 35 35 34 31 26 24 23 22 21 20 19
48 48 47 46 43 41 40 40 38 31 25 23 21 20 20 20 19 20 22 24 27 31 34 36 38 40 41 41 40 39 40 40 40 40 40 40 40 39 40 41 41 42 42 43 44 45 45 44 42 40 37 35 35 34 29 26 24 23 22 22 20 19
48 49 49 47 45 41 37 37 37 34 30 28 26 25 25 23 22 21 20 20 23 26 29 32 35 37 39 39 39 39 39 39 39 38 38 38 38 38 39 40 41 42 42 42 44 46 45 44 42 39 37 35 35 33 29 26 25 24 22 22 20 20
48 48 48 46 45 42 37 35 35 34 32 30 28 28 28 25 23 22 21 21 21 22 26 29 31 34 35 36 37 37 38 37 37 37 37 38 38 39 40 40 41 42 42 43 45 46 45 43 41 39 37 35 34 32 30 27 25 23 22 22 20 20
48 48 48 46 44 42 39 36 34 33 33 31 30 29 29 26 23 21 22 22 21 21 23 26 29 31 32 34 35 36 36 37 37 37 37 38 39 39 40 41 42 43 44 44 45 46 45 43 41 39 38 36 35 33 31 27 25 23 22 21 21 22
46 47 46 46 44 41 39 37 34 32 31 30 29 30 30 28 25 24 23 22 22 21 22 24 26 28 30 32 34 35 36 37 37 38 38 38 39 40 42 43 44 45 46 46 47 47 46 44 42 40 38 37 35 33 31 27 24 24 23 22 22 22
45 45 45 45 43 40 37 35 33 34 32 30 29 30 30 30 29 28 27 25 24 23 22 23 25 27 29 30 32 33 35 37 38 38 38 39 40 42 44 45 46 47 47 48 49 49 48 46 44 41 39 37 35 33 31 27 25 24 24 23 22 21
44 45 45 44 42 40 38 34 33 34 33 32 31 31 31 31 32 32 30 28 26 26 25 25 26 27 28 29 31 33 35 37 38 39 40 40 42 44 45 46 47 48 49 49 51 52 50 47 44 42 40 38 36 33 31 27 25 24 24 23 22 19
44 45 46 45 43 41 40 37 35 35 35 34 33 32 32 32 32 33 32 30 29 28 27 27 28 28 29 30 31 33 35 37 39 40 41 42 44 45 46 47 48 49 50 51 52 52 50 48 46 44 42 40 36 33 31 28 26 25 24 24 21 18
45 46 48 48 45 43 43 41 39 38 38 37 34 33 32 32 32 32 33 32 31 29 29 29 29 30 31 32 32 32 35 37 40 42 43 44 45 47 48 49 50 50 51 53 53 52 51 49 48 45 43 41 37 35 32 30 28 27 26 24 20 18
46 48 50 50 48 45 44 43 42 41 40 40 37 34 33 33 33 32 33 33 32 32 31 30 30 31 33 34 35 35 36 37 40 43 44 45 46 47 48 50 51 52 53 55 56 55 53 51 50 48 45 41 38 36 35 33 31 29 26 23 20 19
47 48 50 52 50 47 45 44 43 42 41 40 38 34 33 34 34 34 34 35 34 34 33 33 33 33 34 36 37 38 39 40 41 43 45 45 46 47 47 48 50 52 55 56 58 58 57 55 52 47 42 38 36 36 35 33 30 27 24 22 21 19
48 49 51 53 52 50 47 45 43 43 42 41 38 35 33 33 34 35 36 36 37 37 35 35 35 35 36 37 38 40 41 42 43 45 46 47 47 48 49 49 49 50 53 55 57 57 55 52 48 42 38 37 37 35 32 29 27 25 24 24 22 19
50 51 52 53 52 51 50 48 46 43 42 42 40 38 36 35 35 36 38 38 39 39 37 37 37 37 38 39 40 41 42 43 45 46 48 49 49 48 49 50 49 48 50 53 54 53 50 47 43 40 40 39 36 33 31 28 27 26 25 23 21 19
50 50 51 53 53 52 52 51 49 46 43 42 40 39 39 39 38 39 40 40 40 40 39 39 39 39 40 40 41 42 44 44 46 47 48 49 49 47 47 48 49 48 48 51 52 51 49 46 41 40 39 37 34 33 31 29 28 27 25 22 19 18
51 51 51 52 51 51 51 51 50 48 46 42 38 36 36 38 40 42 43 42 41 41 41 41 41 41 41 42 43 44 44 45 47 47 46 45 44 42 41 44 46 46 47 49 51 50 47 43 40 38 36 35 34 33 30 28 27 25 23 21 19 17
53 53 52 51 50 50 50 50 50 48 44 41 37 33 33 35 37 40 41 41 41 43 43 43 43 43 42 43 44 45 45 46 46 46 45 42 39 38 37 39 42 44 46 47 47 44 41 39 38 36 35 35 34 31 30 29 27 24 21 20 19 17
51 51 51 49 48 47 47 48 48 44 39 36 32 29 29 31 33 36 38 39 40 43 45 45 44 43 42 43 44 45 46 45 44 44 43 41 40 39 38 37 37 40 43 44 42 38 36 35 35 35 36 35 33 32 31 30 26 23 22 21 19 17
49 48 47 45 43 43 44 46 46 40 35 32 29 27 28 30 31 32 35 38 40 42 44 45 45 44 43 43 43 44 44 43 43 42 41 40 39 39 39 38 35 33 33 35 36 35 33 34 35 35 35 34 33 32 30 27 24 23 23 21 19 17
Wind_Direction
239 240 243 247 246 244 244 245 247 247 247 245 242 242 242 238 235 233 233 233 232 231 229 229 229 229 231 233 235 237 237 237 238 240 242 245 246 246 245 242 240 238 236 232 229 227 227 227 227 228 229 231 234 238 243 251 259 265 269 269 270 272
261 263 269 269 260 252 246 244 249 253 252 250 247 246 244 242 240 237 235 235 233 232 231 230 230 230 231 233 235 236 236 237 238 240 241 244 245 246 246 244 242 240 238 235 230 228 227 227 226 227 229 231 233 236 241 248 254 261 265 266 267 271
292 282 279 279 269 259 253 251 254 256 255 254 253 250 246 242 240 239 238 237 236 235 234 232 231 232 233 235 235 237 237 238 240 241 242 243 245 246 246 245 242 240 239 237 233 229 228 228 227 227 229 230 233 235 239 245 251 258 262 264 267 270
310 297 284 280 271 260 253 254 255 257 260 260 256 253 250 247 245 242 241 239 237 237 235 234 234 235 236 236 236 237 238 239 241 242 243 243 244 246 246 245 243 240 238 237 234 230 229 229 229 229 230 231 233 235 238 243 249 255 260 262 265 269
299 294 282 277 275 264 252 251 256 262 268 270 263 257 254 251 250 248 245 242 240 238 236 236 237 237 238 238 238 239 239 241 242 243 244 244 245 246 246 245 243 240 238 237 234 231 230 230 230 231 231 232 234 235 238 243 248 253 257 260 264 268
290 292 282 275 280 275 262 257 262 267 271 273 271 267 262 256 252 251 249 246 243 241 239 240 239 239 239 239 240 241 242 243 244 245 246 246 246 246 245 245 242 240 238 236 234 232 230 230 231 231 232 232 234 235 238 242 247 251 255 258 262 266
291 294 283 271 277 282 276 271 269 268 270 275 277 274 270 263 256 252 252 249 246 243 242 242 241 240 240 240 242 243 244 245 245 246 247 246 246 245 245 244 241 239 237 235 234 232 231 231 231 232 233 233 234 235 237 241 246 251 254 257 260 263
297 295 281 264 268 276 280 280 275 268 268 275 279 275 271 268 262 256 254 252 249 247 245 243 243 242 242 242 243 244 246 246 246 247 246 246 246 245 244 243 241 239 238 236 234 233 231 231 231 232 233 234 234 235 237 241 245 249 251 254 257 259
294 288 274 265 270 277 281 284 280 272 268 275 279 275 270 268 265 260 257 254 252 250 248 247 247 248 248 246 245 245 246 247 247 247 247 246 245 244 243 242 240 239 238 236 235 233 231 230 230 232 232 232 234 235 238 241 244 247 249 251 254 255
287 280 273 270 273 278 283 287 284 276 272 277 279 274 269 267 265 263 260 256 252 250 250 249 250 252 252 250 247 245 246 247 247 247 247 245 245 244 243 242 240 239 237 235 234 233 231 229 229 231 231 232 234 235 237 240 243 245 246 249 252 252
282 277 276 276 276 278 282 284 282 277 276 277 276 273 269 265 265 266 261 254 251 250 251 251 250 251 251 250 248 246 245 246 246 246 246 245 244 243 242 241 240 239 236 234 232 231 230 229 229 231 232 233 235 235 237 239 240 243 244 246 248 248
287 283 281 280 278 278 281 280 278 276 278 278 277 277 273 264 262 262 257 252 252 253 253 251 249 250 250 249 248 246 245 245 244 245 245 245 243 242 240 239 237 237 235 233 232 230 229 228 229 230 231 233 234 235 236 237 238 239 241 242 243 245
309 299 294 289 284 283 283 282 281 279 278 279 280 279 274 264 259 256 250 250 252 252 251 249 247 248 249 248 247 245 244 243 243 243 243 243 242 240 238 237 236 235 234 233 232 231 229 229 228 229 230 232 233 234 235 235 236 236 237 238 240 243
342 325 310 301 294 292 291 290 291 286 281 280 281 280 273 265 260 254 248 250 252 249 248 247 246 245 246 247 247 245 243 242 242 242 242 242 241 239 237 235 235 234 233 232 232 231 230 229 228 228 230 232 233 233 233 232 232 233 234 234 238 243
357 350 337 319 300 292 293 294 293 289 284 284 286 284 278 272 265 256 250 250 252 250 248 247 246 245 245 246 247 245 243 242 241 242 242 241 239 237 235 235 234 233 232 232 231 231 230 229 227 228 229 231 231 231 230 230 230 231 233 235 240 244
350 352 352 345 324 299 288 290 293 291 286 285 284 282 279 275 269 260 253 253 253 251 249 247 246 245 244 245 245 244 242 241 241 241 241 239 237 236 234 234 233 232 232 232 231 231 229 227 226 227 228 229 230 229 227 227 228 229 232 237 242 246
343 343 346 348 346 332 305 288 287 289 286 283 282 279 276 272 267 262 258 257 257 253 250 248 245 244 244 243 243 242 241 240 240 240 239 238 236 236 235 234 233 232 232 231 230 230 228 225 224 225 227 227 228 227 225 224 226 229 233 238 245 254
339 340 339 341 347 349 339 316 294 286 285 285 283 277 272 269 266 263 262 261 260 256 252 248 246 244 243 242 242 241 239 239 239 239 238 236 235 234 233 233 233 232 231 230 229 228 225 223 223 224 225 226 226 226 224 223 226 231 236 242 252 261
339 339 339 339 343 348 350 345 332 310 297 293 287 275 268 269 272 272 270 267 264 259 253 249 246 245 243 241 240 239 239 239 239 238 237 234 233 231 231 231 231 231 231 230 229 227 223 221 222 223 224 224 224 226 227 226 228 233 238 245 253 260
339 338 339 341 343 345 347 348 349 349 338 320 304 290 285 292 296 292 284 276 268 260 254 250 247 244 242 241 240 240 239 239 238 238 236 234 233 232 232 232 231 230 230 230 229 226 222 221 221 223 223 222 223 226 227 228 230 234 238 244 251 258
335 335 336 339 341 344 345 343 342 346 348 340 330 323 321 321 316 307 297 285 273 263 256 252 248 245 243 241 240 240 240 239 238 237 235 233 232 233 233 232 231 230 229 228 227 224 220 220 221 222 223 222 223 225 226 227 230 232 237 244 250 255
331 332 332 335 337 339 342 340 336 336 338 338 337 336 333 329 320 313 305 293 280 269 261 256 252 248 245 243 242 241 240 239 238 237 235 233 232 232 233 232 230 229 227 226 225 222 219 219 221 222 222 221 223 226 225 225 229 232 237 243 247 252
328 328 327 329 331 333 337 337 334 333 332 332 335 335 331 327 323 320 314 303 289 275 265 259 255 251 249 247 245 243 241 241 240 238 236 234 232 231 230 229 228 227 226 224 222 220 218 219 220 221 221 220 222 225 225 224 228 233 237 241 245 249
324 324 323 324 326 328 331 331 329 330 330 330 333 331 324 320 318 318 317 312 302 288 273 263 257 253 251 248 246 244 242 241 240 238 236 234 233 231 229 227 225 224 223 221 220 218 217 217 219 219 219 219 220 223 223 223 226 232 235 238 244 249
321 320 319 319 321 324 327 327 324 323 325 327 329 326 322 320 317 313 312 311 308 301 288 276 267 260 255 251 248 245 243 241 239 237 234 232 231 229 227 225 224 222 221 219 217 216 216 216 217 217 217 217 218 220 222 222 223 229 233 236 242 248
320 318 315 314 316 319 322 323 321 318 317 320 323 321 320 321 318 314 310 305 302 299 293 286 278 270 263 258 253 248 244 242 239 236 234 231 229 228 226 225 223 221 219 217 215 214 214 215 216 215 215 216 216 217 220 221 221 226 231 235 241 246
318 316 313 311 312 313 314 316 316 313 311 314 316 313 313 314 313 313 311 305 299 293 287 283 278 273 269 264 259 254 250 245 241 237 234 231 228 227 226 224 223 221 219 216 214 213 213 213 213 212 213 213 214 214 216 218 219 222 228 234 238 241
314 313 311 309 308 308 308 307 307 306 305 309 310 308 306 305 306 307 307 304 300 293 285 280 275 270 266 262 259 257 254 250 246 241 236 232 229 227 226 225 223 220 218 216 215 214 213 212 211 211 211 211 211 210 210 213 214 217 224 232 233 233
310 309 308 307 306 306 304 302 300 299 300 302 303 302 299 297 297 298 299 298 297 292 285 281 276 271 266 260 256 255 253 250 246 242 238 235 231 228 226 224 223 221 218 216 215 213 213 212 211 210 209 209 207 205 204 207 211 214 221 228 229 227
309 307 306 305 304 305 303 299 296 295 296 296 296 295 294 291 289 290 290 290 290 287 283 278 274 271 267 261 257 255 253 250 246 242 241 241 238 234 230 227 225 223 220 218 215 212 211 211 211 211 210 209 206 204 203 206 211 214 218 222 223 222
308 306 305 302 302 303 301 297 293 291 290 291 291 290 289 287 286 283 281 281 281 281 279 275 270 267 264 260 256 254 252 249 247 245 244 244 243 241 239 236 232 228 224 220 216 213 211 211 212 212 212 210 207 206 207 209 211 212 213 214 216 216
307 306 304 302 302 301 298 295 292 288 285 284 286 286 285 285 284 281 277 274 273 273 273 271 268 264 261 258 255 251 248 245 243 241 241 240 238 238 238 238 237 233 227 222 219 218 218 218 217 214 211 208 205 205 206 208 208 206 206 209 209 208
306 305 303 302 301 300 298 295 292 288 283 280 279 280 280 279 278 276 273 270 269 269 269 268 266 264 260 257 254 250 246 243 240 238 237 236 235 234 232 231 232 232 229 225 221 219 219 220 219 214 208 203 200 200 201 202 201 200 203 207 204 200
303 302 302 302 301 299 297 294 292 290 286 281 277 276 275 273 271 269 269 269 268 267 267 266 264 262 258 255 251 248 244 241 238 236 234 233 233 232 230 228 227 226 225 222 220 218 218 217 214 210 205 199 196 197 199 199 198 198 198 199 197 195
302 302 302 301 300 298 295 292 291 290 289 285 279 274 270 269 268 265 264 266 266 264 263 262 260 259 256 254 250 247 244 240 238 234 231 229 228 228 228 227 225 222 220 218 217 217 218 215 209 204 199 194 194 197 196 194 195 194 191 191 191 190
303 302 301 300 298 295 292 290 289 289 290 288 283 275 269 267 267 266 263 263 263 263 261 259 257 256 255 253 250 247 244 241 237 233 228 222 217 215 217 219 220 219 217 215 214 213 213 209 202 196 192 190 192 193 191 191 192 189 185 186 188 187
302 300 298 298 296 294 291 289 287 289 290 288 284 279 273 269 268 267 264 261 261 260 259 257 255 254 252 250 246 243 240 237 232 228 222 217 211 206 203 204 206 210 213 213 209 205 202 197 192 188 189 190 191 191 192 195 192 185 182 184 184 184
300 296 295 295 294 292 289 285 285 289 292 289 285 282 278 275 272 269 264 260 258 257 256 255 253 251 249 247 243 240 236 232 227 223 217 211 206 201 196 191 190 193 200 203 199 192 188 186 184 185 187 188 190 193 197 197 189 182 182 184 182 182